This is the latest recevied weather packets stored in our database for station/object N9CQS-13. If no packets are shown the sender has not sent any weather packets the latest 10 day(s).
| Time | Temp. | Humidity | Pressure | Rain* | Wind** | Luminosity | Snow |
|---|---|---|---|---|---|---|---|
| 1777863092 | 14.44° C | 62% | 1010.1 hPa | 0 mm | - | - | - |
| 1777862492 | 14.44° C | 62% | 1009.8 hPa | 0 mm | - | - | - |
| 1777861892 | 14.44° C | 62% | 1010 hPa | 0 mm | - | - | - |
| 1777861292 | 14.44° C | 62% | 1010 hPa | 0 mm | - | - | - |
| 1777860692 | 14.44° C | 61% | 1009.8 hPa | 0 mm | - | - | - |
| 1777860092 | 15° C | 61% | 1009.7 hPa | 0 mm | - | - | - |
| 1777859492 | 15° C | 60% | 1009.5 hPa | 0 mm | - | - | - |
| 1777858892 | 15° C | 60% | 1009.3 hPa | 0 mm | - | - | - |
| 1777858292 | 15.56° C | 60% | 1009.2 hPa | 0 mm | - | - | - |
| 1777857692 | 15.56° C | 59% | 1009 hPa | 0 mm | - | - | - |
| 1777857092 | 16.11° C | 58% | 1009.1 hPa | 0 mm | - | - | - |
| 1777856492 | 16.11° C | 57% | 1009.2 hPa | 0 mm | - | - | - |
| 1777855891 | 16.67° C | 56% | 1009.1 hPa | 0 mm | - | - | - |
| 1777855292 | 16.67° C | 56% | 1009 hPa | 0 mm | - | - | - |
| 1777854692 | 17.22° C | 55% | 1009 hPa | 0 mm | - | - | - |
| 1777854092 | 17.22° C | 54% | 1009 hPa | 0 mm | - | - | - |
| 1777853491 | 17.78° C | 53% | 1009 hPa | 0 mm | - | - | - |
| 1777852891 | 17.78° C | 53% | 1008.9 hPa | 0 mm | - | - | - |
| 1777852292 | 18.33° C | 50% | 1008.9 hPa | 0 mm | - | - | - |
| 1777851692 | 18.33° C | 49% | 1009 hPa | 0 mm | - | - | - |
| 1777851091 | 18.33° C | 50% | 1009.1 hPa | 0 mm | - | - | - |
| 1777850493 | 18.33° C | 52% | 1009.2 hPa | 0 mm | - | - | - |
| 1777849892 | 18.33° C | 51% | 1009.2 hPa | 0 mm | - | - | - |
| 1777849292 | 18.33° C | 51% | 1009.2 hPa | 0 mm | - | - | - |
| 1777848692 | 17.78° C | 51% | 1009.3 hPa | 0 mm | - | - | - |
* Rain latest hour (hover to see other rain measurements)
** Current wind speed in m/s (hover to see current wind gust speed)